Versailles, OH

11:56 AM EDT on October 21, 2019 (GMT -0400)
Darke County

Weather History for KVES - September, 2019

Change the Weather History Date:

Monday, September 16, 2019

  Actual Average (WUND) Record (WUND)
Temperature  
Mean Temperature 72 °F -  
Max Temperature 84 °F - - (-1)
Min Temperature 60 °F - - (-1)
Cooling Degree Days 7    
Growing Degree Days 22 (Base 50)    
Moisture  
Dew Point 57 °F    
Average Humidity 60    
Maximum Humidity 94    
Minimum Humidity 37    
Precipitation  
Precipitation 0.00 in - - ()
Sea Level Pressure  
Sea Level Pressure 30.08 in    
Wind  
Wind Speed 2 mph ()    
Max Wind Speed 10 mph    
Max Gust Speed -    
Visibility 7.6 miles    
Events      
Averages and records for this station are not official NWS values.
T = Trace of Precipitation, MM = Missing Value Source: Averaged Metar Reports

Daily Weather History Graph

Daily Weather History Graph

Search for Another Location

Airport or City:

Astronomy

Sep. 16, 2019 Rise Set
Actual Time 7:19 AM EDT 7:45 PM EDT
Civil Twilight 6:52 AM EDT 8:12 PM EDT
Nautical Twilight 6:20 AM EDT 8:44 PM EDT
Astronomical Twilight 5:47 AM EDT 9:17 PM EDT
Moon 9:19 PM EDT (9/16) 9:25 AM EDT (9/16)
Length of Visible Light 13h 20m
Length of Day
12h 25m
Waning Gibbous, 94% of the Moon is Illuminated
Sep 16
Waning Gibbous
Sep 21
Last Quarter
Sep 28
New
Oct 5
First Quarter
Oct 13
Full

Hourly Weather History & Observations

Time (EDT) Temp. Heat Index Dew Point Humidity Pressure Visibility Wind Dir Wind Speed Gust Speed Precip Events Conditions
12:15 AM 69.8 °F - 50.0 °F 49% 30.07 in 10.0 mi Calm Calm - N/A   Scattered Clouds
12:35 AM 68.0 °F - 50.0 °F 52% 30.07 in 10.0 mi Calm Calm - N/A   Scattered Clouds
12:55 AM 69.8 °F - 50.0 °F 49% 30.08 in 10.0 mi Calm Calm - N/A   Mostly Cloudy
1:15 AM 69.8 °F - 48.2 °F 46% 30.07 in 10.0 mi Calm Calm - N/A   Mostly Cloudy
1:35 AM 69.8 °F - 50.0 °F 49% 30.07 in 10.0 mi Calm Calm - N/A   Mostly Cloudy
1:55 AM 68.0 °F - 50.0 °F 52% 30.07 in 10.0 mi Calm Calm - N/A   Mostly Cloudy
2:15 AM 69.8 °F - 50.0 °F 49% 30.07 in 10.0 mi Calm Calm - N/A   Overcast
2:35 AM 69.8 °F - 46.4 °F 43% 30.07 in 10.0 mi SW 3.5 mph - N/A   Mostly Cloudy
2:55 AM 68.0 °F - 48.2 °F 49% 30.06 in 10.0 mi SW 3.5 mph - N/A   Scattered Clouds
3:15 AM 68.0 °F - 50.0 °F 52% 30.06 in 10.0 mi SW 3.5 mph - N/A   Scattered Clouds
3:35 AM 68.0 °F - 50.0 °F 52% 30.06 in 10.0 mi Calm Calm - N/A   Mostly Cloudy
3:55 AM 68.0 °F - 50.0 °F 52% 30.06 in 10.0 mi Calm Calm - N/A   Mostly Cloudy
4:15 AM 68.0 °F - 48.2 °F 49% 30.06 in 7.0 mi Calm Calm - N/A   Scattered Clouds
4:35 AM 64.4 °F - 50.0 °F 59% 30.06 in 5.0 mi Calm Calm - N/A   Haze
4:55 AM 64.4 °F - 50.0 °F 59% 30.06 in 7.0 mi SW 3.5 mph - N/A   Clear
5:15 AM 64.4 °F - 50.0 °F 59% 30.07 in 7.0 mi Calm Calm - N/A   Clear
5:35 AM 64.4 °F - 50.0 °F 59% 30.07 in 10.0 mi Calm Calm - N/A   Clear
5:55 AM 64.4 °F - 51.8 °F 64% 30.07 in 7.0 mi Calm Calm - N/A   Clear
6:15 AM 62.6 °F - 53.6 °F 72% 30.07 in 7.0 mi Calm Calm - N/A   Scattered Clouds
6:35 AM 62.6 °F - 51.8 °F 68% 30.07 in 7.0 mi Calm Calm - N/A   Scattered Clouds
6:55 AM 60.8 °F - 55.4 °F 82% 30.08 in 10.0 mi Calm Calm - N/A   Scattered Clouds
7:15 AM 60.8 °F - 55.4 °F 82% 30.08 in 7.0 mi Calm Calm - N/A   Clear
7:35 AM 60.8 °F - 55.4 °F 82% 30.08 in 5.0 mi Calm Calm - N/A   Clear
7:55 AM 60.8 °F - 57.2 °F 88% 30.09 in 7.0 mi Calm Calm - N/A   Clear
8:15 AM 64.4 °F - 57.2 °F 77% 30.09 in 7.0 mi Calm Calm - N/A   Scattered Clouds
8:35 AM 64.4 °F - 59.0 °F 83% 30.10 in 7.0 mi Calm Calm - N/A   Scattered Clouds
8:55 AM 69.8 °F - 57.2 °F 64% 30.10 in 5.0 mi WNW 3.5 mph - N/A   Haze
9:15 AM 71.6 °F - 59.0 °F 64% 30.10 in 5.0 mi NW 3.5 mph - N/A   Haze
9:35 AM 73.4 °F - 60.8 °F 65% 30.10 in 10.0 mi NNW 6.9 mph - N/A   Clear
9:55 AM 73.4 °F - 60.8 °F 65% 30.11 in 7.0 mi North 5.8 mph - N/A   Clear
10:35 AM 77.0 °F - 60.8 °F 57% 30.11 in 7.0 mi North 4.6 mph - N/A   Scattered Clouds
10:55 AM 77.0 °F - 60.8 °F 57% 30.11 in 7.0 mi Calm Calm - N/A   Scattered Clouds
11:15 AM 78.8 °F - 60.8 °F 54% 30.11 in 7.0 mi North 3.5 mph - N/A   Clear
11:35 AM 78.8 °F - 60.8 °F 54% 30.10 in 7.0 mi North 5.8 mph - N/A   Mostly Cloudy
11:55 AM 78.8 °F - 60.8 °F 54% 30.10 in 7.0 mi North 5.8 mph - N/A   Scattered Clouds
12:15 PM 80.6 °F 81.8 °F 62.6 °F 54% 30.10 in 7.0 mi North 5.8 mph - N/A   Clear
12:35 PM 80.6 °F 81.5 °F 60.8 °F 51% 30.10 in 7.0 mi North 3.5 mph - N/A   Clear
12:55 PM 82.4 °F 82.9 °F 60.8 °F 48% 30.10 in 7.0 mi North 4.6 mph - N/A   Scattered Clouds
1:15 PM 82.4 °F 82.9 °F 60.8 °F 48% 30.09 in 7.0 mi Calm Calm - N/A   Scattered Clouds
1:35 PM 82.4 °F 82.9 °F 60.8 °F 48% 30.09 in 7.0 mi NNE 6.9 mph - N/A   Scattered Clouds
1:55 PM 82.4 °F 82.5 °F 59.0 °F 45% 30.09 in 7.0 mi NNW 5.8 mph - N/A   Scattered Clouds
2:15 PM 80.6 °F 81.5 °F 60.8 °F 51% 30.09 in 7.0 mi North 8.1 mph - N/A   Mostly Cloudy
2:35 PM 80.6 °F 81.1 °F 59.0 °F 48% 30.09 in 10.0 mi North 6.9 mph - N/A   Mostly Cloudy
2:55 PM 84.2 °F 83.8 °F 59.0 °F 42% 30.08 in 7.0 mi North 10.4 mph - N/A   Mostly Cloudy
3:15 PM 82.4 °F 82.5 °F 59.0 °F 45% 30.07 in 7.0 mi North 4.6 mph - N/A   Scattered Clouds
3:35 PM 82.4 °F 81.7 °F 55.4 °F 39% 30.07 in 10.0 mi North 8.1 mph - N/A   Scattered Clouds
3:55 PM 82.4 °F 81.7 °F 55.4 °F 39% 30.06 in 7.0 mi North 6.9 mph - N/A   Scattered Clouds
4:35 PM 82.4 °F 81.7 °F 55.4 °F 39% 30.06 in 10.0 mi North 6.9 mph - N/A   Scattered Clouds
4:55 PM 84.2 °F 83.0 °F 55.4 °F 37% 30.05 in 7.0 mi North 6.9 mph - N/A   Scattered Clouds
5:15 PM 80.6 °F 81.1 °F 59.0 °F 48% 30.05 in 5.0 mi NNE 5.8 mph - N/A   Haze
5:35 PM 80.6 °F 80.5 °F 55.4 °F 42% 30.06 in 7.0 mi NNE 6.9 mph - N/A   Scattered Clouds
5:55 PM 80.6 °F 80.8 °F 57.2 °F 45% 30.05 in 7.0 mi North 5.8 mph - N/A   Clear
6:15 PM 80.6 °F 80.5 °F 55.4 °F 42% 30.06 in 7.0 mi North 8.1 mph - N/A   Clear
6:35 PM 80.6 °F 80.3 °F 53.6 °F 39% 30.06 in 7.0 mi NNE 5.8 mph - N/A   Clear
6:55 PM 78.8 °F - 55.4 °F 44% 30.06 in 7.0 mi North 4.6 mph - N/A   Clear
7:15 PM 77.0 °F - 57.2 °F 50% 30.06 in 7.0 mi North 3.5 mph - N/A   Clear
7:35 PM 73.4 °F - 59.0 °F 61% 30.06 in 7.0 mi North 3.5 mph - N/A   Clear
7:55 PM 71.6 °F - 60.8 °F 69% 30.06 in 7.0 mi Calm Calm - N/A   Clear
8:15 PM 71.6 °F - 62.6 °F 73% 30.07 in 7.0 mi NNE 4.6 mph - N/A   Clear
8:35 PM 69.8 °F - 62.6 °F 78% 30.07 in 7.0 mi NNE 4.6 mph - N/A   Clear
8:55 PM 69.8 °F - 62.6 °F 78% 30.07 in 7.0 mi NNE 4.6 mph - N/A   Clear
9:15 PM 68.0 °F - 62.6 °F 83% 30.08 in 7.0 mi Calm Calm - N/A   Clear
9:35 PM 69.8 °F - 62.6 °F 78% 30.08 in 7.0 mi NNE 6.9 mph - N/A   Clear
9:55 PM 69.8 °F - 62.6 °F 78% 30.09 in 7.0 mi NNE 8.1 mph - N/A   Clear
10:15 PM 69.8 °F - 62.6 °F 78% 30.09 in 7.0 mi NNE 5.8 mph - N/A   Clear
10:35 PM 68.0 °F - 64.4 °F 88% 30.09 in 7.0 mi NNE 4.6 mph - N/A   Clear
10:55 PM 68.0 °F - 64.4 °F 88% 30.10 in 7.0 mi NE 4.6 mph - N/A   Clear
11:15 PM 66.2 °F - 64.4 °F 94% 30.10 in 7.0 mi NE 4.6 mph - N/A   Clear
11:35 PM 66.2 °F - 64.4 °F 94% 30.10 in 7.0 mi NE 4.6 mph - N/A   Clear
11:55 PM 66.2 °F - 64.4 °F 94% 30.11 in 5.0 mi NNE 4.6 mph - N/A   Clear